map of AHU home
AHU - Airport
Location
City:  Al Hoceima, Morocco
Name:Cherif al Idrissi Airport
ICAO:GMTA
IATA:AHU

Details
Type:Airport (Aerodrome, Airfield)
Use:Public/Civil, International (customs port of entry)
Latitude:3510'38"N (35.177103)
Longitude:350'22"W (-3.839524)
Datum:WGS 1984
Elevation:95 ft (29 m)
Variation:0.73W (WMM2015 magnetic declination)
0.11 annual change
Runways:1
Longest:8202 × 148 ft (2500 × 45 m), paved

Time
Time Zone:UTC+0 (DST+1)
Local Time:

Weather
METAR:GMTA 240800Z 30002KT 8000 SCT016 BKN026 26/23 Q1016 NOSIG
TAF:GMTA 240500Z 2406/2512 VRB02KT 9000 SCT015 SCT020 PROB40 2406/2408 3000 BR PROB40 2500/2506 3000 BR

Related Locations
Nearby:
Farthest:NZOX: 12354 mi / 19882 km
Okiwi Station, AUK, NZ

Find:

   beyond  
but within

Other Information
Maps:
NOTAMs:
Links:
Sources:

  
flag of Morocco   

Sectional Chart

Flight Planning
at skyvector.com

Satellite Image

Google Maps Satellite view

 

Copyright © 2004-2017 Karl L. Swartz. All rights reserved.
The Great Circle Mapper name and logo are trademarks of the Great Circle Mapper.
All other trademarks mentioned herein belong to their respective owners.
Please see credits for attibutions and further copyright information.

  Follow gcmap on Facebook Follow gcmap on Twitter Follow gcmap on Google+ GCmap on LinkedIn

hCard Microformat

Geo Microformat